Weather Roundup
Issued by NWS Chicago, IL

Home | Current Version | Previous Version | Graphics & Text | Print | Product List | Glossary On
Versions: 1 2 3 4 5 6 7 8 9 10 11 12 13 14 15 16 17 18 19 20 21 22 23 24 25 26 27 28 29 30 31 32 33 34 35 36 37 38 39 40 41 42 43 44 45 46 47 48 49 50
069
NZUS59 KLOT 082203
HRRLOT

CHICAGO AREA WEATHER ROUNDUP
NATIONAL WEATHER SERVICE CHICAGO/ROMEOVILLE IL
400 PM CST MON FEB 08 2016

NOTE: "FAIR" INDICATES FEW OR NO CLOUDS BELOW 12,000 FEET WITH NO
SIGNIFICANT WEATHER AND/OR OBSTRUCTIONS TO VISIBILITY.

* THESE STATIONS ARE NOT UNDER NWS QUALITY CONTROL. THEY ALSO MAY NOT
  REPORT WEATHER SUCH AS PRECIPITATION OR FOG.

ILZ005-006-012>014-019>023-082300-
NORTHEAST ILLINOIS

CITY           SKY/WX    TMP DP  RH WIND       PRES   REMARKS
OHARE          CLOUDY    27  20  75 NW13      29.70R WCI  16
MIDWAY         CLOUDY    29  20  69 W10       29.71R WCI  20
AURORA         CLOUDY    27  20  75 W16       29.73R WCI  15
LANSING*       CLOUDY    28  22  77 W10       29.72R WCI  19
WAUKEGAN       FLURRIES  26  20  77 W9G16     29.69R WCI  17
DUPAGE AIRPORT CLOUDY    26  19  74 NW12      29.71R WCI  16
WHEELING       CLOUDY    28  20  71 W12       29.71R WCI  18
$$

WIZ051-052-058>065-066-070>072-082300-
SOUTHEAST WISCONSIN

CITY           SKY/WX    TMP DP  RH WIND       PRES   REMARKS
MILWAUKEE      FLURRIES  27  20  75 NW13      29.68R WCI  16
KENOSHA*       CLOUDY    27  20  75 NW17G23   29.69R WCI  14
RACINE*        FLURRIES  27  20  75 NW14G21   29.70R WCI  16
BURLINGTON     CLOUDY    25  18  76 NW14      29.70R WCI  13
WAUKESHA       CLOUDY    25  19  80 W13       29.70R WCI  13
$$

INZ001>003-010>013-019-020-082300-
NORTHWEST INDIANA

CITY           SKY/WX    TMP DP  RH WIND       PRES   REMARKS
GARY*          CLOUDY    30  21  69 W14       29.72  WCI  20
MICHIGAN CITY* NOT AVBL
RENSSELAER*    NOT AVBL
VALPARAISO     CLOUDY    29  22  75 W14       29.70R WCI  18
$$

LMZ740>746-082300-
SOUTHERN LAKE MICHIGAN

STATION/POSITION TIME  SKY/WX   TEMP WIND        PRES    VSBY
                                AIR  DIR/SP/G
                 (UTC)          (F)  (DEG/KT/KT) (MB)    (MI)
HARRISON CRIB    2100            29  280/ 17/ 19   N/A
BURNHAM HARBOR   2200            29  290/  9/ 13   N/A
CALUMET HARBOR   2100            28  260/  8/ 13 1005.1R
BURNS HARBOR     2100            30  280/ 13/ 15 1006.1R
MICHIGAN CITY    2100            30  260/ 15/ 17   N/A
$$

ABBREVIATIONS USED IN REMARKS
   TC - TEMPERATURE IN CELSIUS
  WCI - WIND CHILL INDEX
   HX - HEAT INDEX
  VSB - VISIBILITY
$$




USA.gov is the U.S. government's official web portal to all federal, state and local government web resources and services.